Tulsa Jones, OK

10:10 AM CST on November 20, 2017 (GMT -0600)
Jones Jr.

Weather History for KRVS - February, 2013

Change the Weather History Date:

Wednesday, February 20, 2013

  Actual Average (KTUL) Record (KTUL)
Temperature  
Mean Temperature 36 °F -  
Max Temperature 39 °F 58 °F 83 °F (1981)
Min Temperature 32 °F 33 °F 9 °F (1918)
Degree Days  
Heating Degree Days 30    
Moisture  
Dew Point 28 °F    
Average Humidity 79    
Maximum Humidity 96    
Minimum Humidity 45    
Precipitation  
Precipitation 0.44 in - - ()
Sea Level Pressure  
Sea Level Pressure 30.21 in    
Wind  
Wind Speed 5 mph (East)    
Max Wind Speed 12 mph    
Max Gust Speed -    
Visibility 6 miles    
Events Fog , Rain , Snow    
Averages and records for this station are not official NWS values.
T = Trace of Precipitation, MM = Missing Value Source: NWS Daily Summary

Daily Weather History Graph

Daily Weather History Graph

Search for Another Location

Airport or City:

Trip Planner

Search our weather history database for the weather conditions in past years. The results will help you decide how hot, cold, wet, or windy it might be!

Date:

Astronomy

Feb. 20, 2013 Rise Set
Actual Time 7:05 AM CST 6:10 PM CST
Civil Twilight 6:39 AM CST 6:36 PM CST
Nautical Twilight 6:09 AM CST 7:06 PM CST
Astronomical Twilight 5:39 AM CST 7:36 PM CST
Moon 1:38 PM CST 3:20 AM CST
Length of Visible Light 11h 57m
Length of Day
11h 05m
Waxing Gibbous, 76% of the Moon is Illuminated
Feb 20
Waxing Gibbous
Feb 25
Full
Mar 4
Last Quarter
Mar 11
New
Mar 19
First Quarter

Hourly Weather History & Observations

Time (CST) Temp. Windchill Dew Point Humidity Pressure Visibility Wind Dir Wind Speed Gust Speed Precip Events Conditions
12:53 AM 39.9 °F 37.8 °F 19.9 °F 45% 30.29 in 10.0 mi ENE 3.5 mph - N/A   Partly Cloudy
1:53 AM 39.9 °F 35.8 °F 19.9 °F 45% 30.28 in 10.0 mi ENE 5.8 mph - N/A   Clear
2:53 AM 39.0 °F 35.7 °F 19.9 °F 46% 30.25 in 10.0 mi East 4.6 mph - N/A   Overcast
3:53 AM 39.0 °F 32.8 °F 19.9 °F 46% 30.24 in 10.0 mi ENE 9.2 mph - N/A   Overcast
4:53 AM 39.0 °F 34.8 °F 19.0 °F 45% 30.27 in 10.0 mi ESE 5.8 mph - N/A   Overcast
5:53 AM 37.9 °F 33.5 °F 19.9 °F 48% 30.28 in 10.0 mi ENE 5.8 mph - 0.00 in Rain Light Rain
6:43 AM 37.4 °F - 21.2 °F 52% 30.27 in 6.0 mi Calm Calm - 0.00 in Snow Light Snow
6:53 AM 37.0 °F - 23.0 °F 57% 30.29 in 9.0 mi Calm Calm - 0.00 in Snow Light Snow
7:24 AM 33.8 °F - 26.6 °F 75% 30.29 in 2.0 mi Calm Calm - 0.00 in Snow Light Snow
7:44 AM 33.8 °F 30.8 °F 28.4 °F 81% 30.29 in 0.8 mi ENE 3.5 mph - 0.02 in Snow Light Snow
7:53 AM 32.0 °F 28.7 °F 30.0 °F 92% 30.31 in 0.5 mi East 3.5 mph - 0.03 in Fog , Snow Snow
8:01 AM 32.0 °F 28.7 °F 30.2 °F 93% 30.28 in 0.2 mi East 3.5 mph - 0.02 in Fog , Snow Heavy Snow
9:39 AM 32.0 °F 27.5 °F 30.2 °F 93% 30.27 in 0.2 mi NE 4.6 mph - 0.11 in Fog , Snow Snow
9:53 AM 32.0 °F 28.7 °F 30.9 °F 96% 30.31 in 0.2 mi NE 3.5 mph - 0.15 in Fog , Snow Heavy Snow
10:16 AM 32.0 °F 26.4 °F 30.2 °F 93% 30.27 in - ENE 5.8 mph - 0.04 in Snow Heavy Snow
10:28 AM 33.8 °F 29.6 °F 30.2 °F 87% 30.26 in 0.5 mi East 4.6 mph - 0.06 in Fog , Snow Snow
10:49 AM 33.8 °F 27.7 °F 30.2 °F 87% 30.25 in 0.5 mi ENE 6.9 mph - 0.09 in Fog , Snow Snow
11:04 AM 33.8 °F 29.6 °F 30.2 °F 87% 30.25 in 0.8 mi ENE 4.6 mph - 0.01 in Snow Light Snow
11:14 AM 33.8 °F 29.6 °F 30.2 °F 87% 30.24 in 1.2 mi East 4.6 mph - 0.01 in Snow Light Snow
11:28 AM 33.8 °F 27.0 °F 30.2 °F 87% 30.23 in 2.5 mi East 8.1 mph - 0.02 in Snow Light Snow
11:36 AM 33.8 °F 25.8 °F 30.2 °F 87% 30.24 in 4.0 mi ENE 10.4 mph - 0.02 in Snow Light Snow
11:53 AM 34.0 °F 28.0 °F 30.0 °F 85% 30.26 in 6.0 mi East 6.9 mph - 0.02 in Snow Light Snow
12:53 PM 34.0 °F 26.6 °F 30.0 °F 85% 30.22 in 5.0 mi East 9.2 mph - 0.00 in Snow Light Snow
1:53 PM 35.1 °F 28.6 °F 30.9 °F 85% 30.18 in 10.0 mi ENE 8.1 mph - 0.00 in Rain Light Rain
2:53 PM 34.0 °F 28.0 °F 30.9 °F 89% 30.15 in 4.0 mi ENE 6.9 mph - 0.01 in Snow Light Snow
3:53 PM 34.0 °F 28.0 °F 30.9 °F 89% 30.14 in 4.0 mi East 6.9 mph - 0.01 in Snow Light Snow
4:53 PM 34.0 °F 28.8 °F 30.9 °F 89% 30.11 in 5.0 mi East 5.8 mph - 0.01 in   Overcast
5:53 PM 34.0 °F 29.8 °F 32.0 °F 92% 30.09 in 5.0 mi East 4.6 mph - 0.01 in Rain Light Rain
6:53 PM 34.0 °F 28.0 °F 30.9 °F 89% 30.08 in 8.0 mi ESE 6.9 mph - 0.08 in Rain Light Rain
7:53 PM 34.0 °F 28.0 °F 30.9 °F 89% 30.08 in 10.0 mi ESE 6.9 mph - 0.02 in Rain Light Rain
8:53 PM 34.0 °F 25.5 °F 30.0 °F 85% 30.07 in 10.0 mi East 11.5 mph - 0.03 in Rain Light Rain
9:29 PM 33.8 °F 27.0 °F 30.2 °F 87% 30.07 in 9.0 mi SE 8.1 mph - 0.05 in Rain Rain
9:53 PM 33.1 °F 25.5 °F 30.0 °F 89% 30.10 in 10.0 mi ESE 9.2 mph - 0.05 in Rain Light Rain
10:53 PM 33.1 °F 26.1 °F 30.0 °F 89% 30.07 in 10.0 mi ESE 8.1 mph - 0.02 in Rain Light Rain
11:53 PM 33.1 °F 24.9 °F 30.0 °F 89% 30.04 in 10.0 mi ESE 10.4 mph - 0.00 in   Overcast